Flag for Germany Weather past 2 weeks in Göttingen, Lower Saxony, Germany

Now
43 °F

Partly cloudy.


Feels Like: 35 °F
Forecast: 45 / 52 °F
Wind: 15 mph from Southwest

Location: Kassel / Calden

Current Time: Dec 21, 2014 at 11:41:04 PM

Latest Report: Dec 21, 2014 at 9:50 PM


Visibility: N/A

Pressure: 30.15 "Hg

Humidity: 87%

Dew point: 39 °F

Location of GöttingenLocation

Historic Weather in Göttingen — Graph

°F

Göttingen temperature yesterday

Maximum temperature yesterday: 43 °F (at 8:20 AM)
Minimum temperature yesterday: 37 °F (at 6:20 PM)
Average temperature yesterday: 41 °F

Past Weeks' High & Low Weather Summary

 TemperatureHumidityPressure
High55 °F (Dec 18, 8:50 PM)100% (Dec 6, 9:20 PM)30.36 "Hg (Dec 6, 9:20 PM)
Low32 °F (Dec 8, 7:50 AM)65% (Dec 14, 7:50 AM)29.42 "Hg (Dec 12, 1:50 PM)
Average40 °F85%29.92 "Hg
* Reported Dec 6 9:20 PM — Dec 21 9:50 PM, Göttingen, Weather by CustomWeather, © 2014

Note: Actual official high and low records may vary slightly from our data, if they occured in-between our weather recording intervals... More about our weather records

Advertising

Göttingen weather history for previous 24 hours

 ConditionsComfort  
Time TempWeatherWind HumidityBarometerVisibility
9:50 PM
Dec 21
43 °FPartly cloudy.15 mph87%30.15 "HgN/A
9:20 PM43 °FLight rain. Partly cloudy.15 mph87%30.15 "HgN/A
8:50 PM43 °FPartly cloudy.16 mph87%30.15 "HgN/A
8:20 PM43 °FPartly cloudy.15 mph87%30.18 "HgN/A
7:50 PM43 °FLight rain. Partly cloudy.15 mph87%30.18 "HgN/A
7:20 PM43 °FPartly cloudy.15 mph87%30.18 "HgN/A
6:50 PM41 °FPartly cloudy.15 mph93%30.18 "HgN/A
6:20 PM41 °FPartly cloudy.16 mph87%30.18 "HgN/A
5:50 PM41 °FLight rain. Passing clouds.17 mph87%30.21 "HgN/A
5:20 PM41 °FPassing clouds.16 mph87%30.21 "HgN/A
4:50 PM41 °FLight rain. Partly cloudy.15 mph87%30.24 "HgN/A
4:20 PM41 °FLight rain. Overcast.14 mph87%30.24 "HgN/A
3:50 PM41 °FLight rain. Mostly cloudy.13 mph87%30.24 "HgN/A
3:20 PM41 °FLight rain. Mostly cloudy.14 mph87%30.24 "Hg6 mi
2:50 PM41 °FLight rain. Broken clouds.13 mph87%30.27 "HgN/A
2:20 PM41 °FLight rain. Broken clouds.14 mph87%30.27 "HgN/A
1:50 PM41 °FLight rain. Broken clouds.12 mph87%30.30 "HgN/A
1:20 PM41 °FDrizzle. Broken clouds.13 mph87%30.30 "HgN/A
12:50 PM41 °FLight rain. More clouds than sun.13 mph87%30.30 "Hg4 mi
12:20 PM41 °FLight rain. Mostly cloudy.14 mph87%30.30 "Hg5 mi
11:50 AM41 °FMostly cloudy.14 mph81%30.30 "HgN/A
11:20 AM43 °FPartly sunny.13 mph76%30.33 "HgN/A
10:50 AM41 °FOvercast.9 mph81%30.33 "HgN/A
10:20 AM41 °FPartly sunny.9 mph81%30.33 "HgN/A
9:50 AM41 °FPartly sunny.10 mph81%30.36 "HgN/A
9:20 AM41 °FLight rain. Cloudy.9 mph81%30.33 "HgN/A
8:50 AM41 °FMostly cloudy.9 mph81%30.33 "HgN/A
8:20 AM41 °FMostly cloudy.7 mph81%30.33 "HgN/A
7:50 AM41 °FPassing clouds.9 mph81%30.33 "HgN/A
7:20 AM41 °FOvercast.9 mph81%30.33 "HgN/A
6:50 AM41 °FOvercast.9 mph81%30.33 "HgN/A
6:20 AM41 °FMostly cloudy.12 mph81%30.33 "HgN/A
5:50 AM41 °FMostly cloudy.12 mph81%30.30 "HgN/A
12:50 AM39 °FPassing clouds.17 mph81%30.21 "HgN/A
12:20 AM39 °FPassing clouds.17 mph81%30.21 "HgN/A
11:50 PM
Dec 20
39 °FPassing clouds.23 mph87%30.18 "Hg6 mi
11:20 PM39 °FOvercast.18 mph81%30.18 "Hg6 mi
Weather by CustomWeather, © 2014

See weather overviewHow to use our weather pages